[[{"header":{"parameterUnit":"m.s-1","parameterCategory":2,"la1":30.2992,"la2":30.254,"lo1":-89.0895,"lo2":-89.0443,"dy":0.0025,"dx":0.0025,"nx":19,"ny":19,"refTime":"2026-04-07T03:00:00:Z","depth":"0","parameterNumber":2,"parameterNumberName":"U-component_of_CURRENTS"},"data":[0,0,0,0.171,0.1712,0.179,0.1791,0.1862,0.1863,0,0,0,0,0,0,0,0,0,0,0,0.1677,0.1678,0.171,0.1712,0.179,0.1791,0.1862,0.1863,0,0,0,0,0,0,0,0,0,0,0,0.1677,0.1678,0.1678,0.1712,0.179,0.1791,0.1862,0.181,0,0,0,0,0,0,0,0,0,0,0.1737,0.1703,0.1678,0.1678,0.1713,0.179,0.1791,0.1807,0.1813,0.182,0,0.1832,0,0.1853,0.1867,0.1868,0,0,0,0.171,0.1698,0.173,0.1678,0.1714,0.179,0.1754,0.1811,0.1817,0.1827,0.1833,0.1837,0.1854,0.1868,0.1868,0.1958,0.1959,0,0,0.1705,0.1682,0.1726,0.1734,0.1734,0.1752,0.1757,0.1815,0.1814,0.1834,0.1839,0.1855,0.1868,0.1869,0.1958,0.1958,0,0,0,0.1695,0.1679,0.1709,0.173,0.1749,0.1754,0.176,0.1812,0.1825,0.1839,0.1856,0.1869,0.1869,0.1957,0.1958,0.1995,0,0,0,0.1692,0.1673,0.1707,0.1693,0.1748,0.1783,0.1755,0.1821,0.1828,0.1856,0.1869,0.187,0.1957,0.1958,0.1993,0.2016,0,0,0,0.1674,0.1671,0.1683,0.1692,0.1729,0.1783,0.1799,0.1823,0.1838,0.1868,0.187,0.1956,0.1958,0.1991,0.2013,0.2087,0,0,0,0.1644,0.1665,0.1682,0.1714,0.1728,0.1798,0.1799,0.1842,0.1868,0.1869,0.1957,0.1958,0.199,0.2011,0.2084,0.2122,0.2139,0,0,0.1657,0.1666,0.1689,0.1706,0.177,0.1786,0.1857,0.1884,0.1889,0.1934,0.1936,0.1993,0.2013,0.2087,0.219,0.2205,0,0,0,0.1685,0.17,0.1723,0.1763,0.1812,0.1867,0.1898,0.192,0.1966,0.1912,0.2007,0.2019,0.2064,0.2081,0.2093,0.2095,0.1963,0.1963,0.1963,0.1662,0.1705,0.1747,0.1807,0.1853,0.1924,0.1973,0.201,0.2003,0.2031,0.2059,0.2153,0.2171,0.2181,0.2182,0.2066,0.2066,0.2066,0.2066,0.1684,0.1707,0.1768,0.1824,0.1891,0.1953,0.2047,0.2064,0.2154,0.2113,0.2156,0.213,0.2196,0.2192,0.2069,0.2068,0.2068,0.2068,0.2068,0.1665,0.168,0.1725,0.1801,0.1883,0.1969,0.2068,0.2142,0.2192,0.2239,0.2284,0.2284,0.2275,0.2271,0.2271,0.2272,0.2272,0.2272,0.2273,0.1614,0.1662,0.1691,0.1775,0.1822,0.1925,0.2085,0.2173,0.2308,0.2344,0.2344,0.2316,0.2216,0.2202,0.228,0.2278,0.2277,0.2277,0.2276,0.1586,0.1596,0.1637,0.1675,0.1781,0.1845,0.2023,0.2247,0.2367,0.2447,0.2473,0.241,0.2411,0.2401,0.2392,0.2514,0.2514,0.2514,0.2514,0.1545,0.1558,0.1585,0.1623,0.1698,0.1805,0.1925,0.2134,0.2409,0.2511,0.2572,0.2517,0.2508,0.251,0.2498,0.2488,0.2633,0.2633,0.2633,0.1523,0.1534,0.1529,0.1569,0.165,0.1741,0.1815,0.1977,0.2391,0.2636,0.2572,0.2567,0.2479,0.2464,0.2456,0.2438,0.2418,0,0]},{"header":{"parameterUnit":"m.s-1","parameterCategory":2,"la1":30.2992,"la2":30.254,"lo1":-89.0895,"lo2":-89.0443,"dy":0.0025,"dx":0.0025,"nx":19,"ny":19,"refTime":"2026-04-07T03:00:00:Z","depth":"0","parameterNumber":3,"parameterNumberName":"V-component_of_CURRENTS"},"data":[0,0,0,-0.0407,-0.0407,-0.0439,-0.0439,-0.0513,-0.0514,0,0,0,0,0,0,0,0,0,0,0,-0.0396,-0.0396,-0.0407,-0.0407,-0.0439,-0.0439,-0.0513,-0.0514,0,0,0,0,0,0,0,0,0,0,0,-0.0396,-0.0396,-0.0396,-0.0408,-0.0439,-0.0439,-0.0513,-0.0483,0,0,0,0,0,0,0,0,0,0,-0.0449,-0.0424,-0.0396,-0.0396,-0.0408,-0.0439,-0.0439,-0.0481,-0.0485,-0.0506,0,-0.0505,0,-0.0508,-0.0519,-0.0519,0,0,0,-0.0416,-0.042,-0.0435,-0.0396,-0.0408,-0.0438,-0.0427,-0.0483,-0.0487,-0.0511,-0.0506,-0.0508,-0.0509,-0.0519,-0.0519,-0.0548,-0.0548,0,0,-0.0414,-0.04,-0.0432,-0.0437,-0.0409,-0.0426,-0.0428,-0.0485,-0.0484,-0.0506,-0.051,-0.0511,-0.052,-0.052,-0.0549,-0.0548,0,0,0,-0.0404,-0.0398,-0.0411,-0.0434,-0.0436,-0.0427,-0.0429,-0.0481,-0.0486,-0.051,-0.0511,-0.052,-0.0521,-0.0549,-0.0548,-0.0467,0,0,0,-0.0403,-0.0392,-0.041,-0.0401,-0.0434,-0.0452,-0.0423,-0.0483,-0.0489,-0.0511,-0.052,-0.0522,-0.0549,-0.0549,-0.0469,-0.0409,0,0,0,-0.0396,-0.0391,-0.0394,-0.04,-0.0411,-0.0451,-0.046,-0.0484,-0.049,-0.0519,-0.0522,-0.0549,-0.0549,-0.0472,-0.0415,-0.036,0,0,0,-0.0383,-0.0356,-0.0393,-0.0365,-0.041,-0.0406,-0.0459,-0.0467,-0.0485,-0.052,-0.0549,-0.0548,-0.0473,-0.0418,-0.0363,-0.0235,-0.0208,0,0,-0.0336,-0.035,-0.0333,-0.0367,-0.034,-0.0403,-0.0382,-0.0434,-0.0487,-0.0535,-0.0536,-0.0469,-0.0415,-0.036,-0.0202,-0.0176,0,0,0,-0.031,-0.0297,-0.0296,-0.0293,-0.0312,-0.0319,-0.0377,-0.0408,-0.045,-0.0495,-0.048,-0.0449,-0.0417,-0.0347,-0.0327,-0.0423,-0.0546,-0.0546,-0.0546,-0.0224,-0.0239,-0.0207,-0.0225,-0.0227,-0.0268,-0.028,-0.0337,-0.0402,-0.0411,-0.0392,-0.0304,-0.023,-0.0213,-0.0315,-0.0416,-0.0416,-0.0415,-0.0415,-0.0144,-0.0121,-0.0142,-0.0116,-0.014,-0.0136,-0.0195,-0.0239,-0.0256,-0.033,-0.0304,-0.0276,-0.0185,-0.0302,-0.041,-0.0411,-0.0412,-0.0412,-0.0413,-0.0082,-0.0072,-0.0065,-0.0032,-0.0013,-0.005,-0.0004,-0.008,-0.0164,-0.0141,-0.0077,-0.0078,-0.0171,-0.0132,-0.0131,-0.0131,-0.013,-0.013,-0.013,-0.002,-0.0013,0.0035,0.0056,0.0089,0.0127,0.0106,0.0114,0.0095,0.0043,0.0043,-0.0141,-0.0217,-0.0217,-0.0122,-0.0123,-0.0124,-0.0125,-0.0126,0.0061,0.0064,0.0143,0.0185,0.0266,0.0379,0.0347,0.0415,0.0384,0.041,0.0135,0.0133,0.0125,0.0108,0.0115,0.0291,0.0291,0.0291,0.0291,0.0123,0.0124,0.0246,0.0333,0.0438,0.0499,0.0696,0.0711,0.0518,0.0391,0.0247,0.0187,0.0174,0.0161,0.0143,0.0147,0.0327,0.0326,0.0326,0.0184,0.0214,0.0317,0.0395,0.0514,0.0661,0.0872,0.0959,0.062,0.0308,0.0087,0.0086,-0.0032,-0.0044,-0.0092,-0.0109,-0.0114,0,0]}],[{"header":{"parameterUnit":"m.s-1","parameterCategory":2,"la1":30.2992,"la2":30.254,"lo1":-89.0895,"lo2":-89.0443,"dy":0.0025,"dx":0.0025,"nx":19,"ny":19,"refTime":"2026-04-07T03:00:00:Z","depth":"2","parameterNumber":2,"parameterNumberName":"U-component_of_CURRENTS"},"data":[0,0,0,0.1822,0.1823,0.1881,0.1881,0.197,0.1971,0,0,0,0,0,0,0,0,0,0,0,0.1803,0.1803,0.1822,0.1823,0.1881,0.1881,0.197,0.1971,0,0,0,0,0,0,0,0,0,0,0,0.1803,0.1803,0.1804,0.1823,0.1881,0.1881,0.197,0.1923,0,0,0,0,0,0,0,0,0,0,0.1864,0.184,0.1803,0.1804,0.1824,0.1881,0.1881,0.192,0.1925,0.1948,0,0.1959,0,0.1967,0.1977,0.1977,0,0,0,0.1824,0.1836,0.1856,0.1804,0.1824,0.1881,0.1855,0.1923,0.1929,0.1955,0.196,0.1963,0.1969,0.1978,0.1978,0.2088,0.2089,0,0,0.1821,0.181,0.1852,0.186,0.1843,0.1853,0.1857,0.1927,0.1932,0.1961,0.1966,0.197,0.1978,0.1979,0.2088,0.2089,0,0,0,0.1811,0.1808,0.1826,0.1856,0.1866,0.1855,0.1859,0.1929,0.1937,0.1966,0.1971,0.1979,0.198,0.2087,0.2088,0.2125,0,0,0,0.1809,0.1802,0.1824,0.1818,0.1865,0.1895,0.186,0.1932,0.194,0.1971,0.1979,0.1981,0.2087,0.2088,0.2123,0.2142,0,0,0,0.18,0.1801,0.181,0.1818,0.1843,0.1894,0.1905,0.1933,0.1943,0.1978,0.1981,0.2086,0.2088,0.2121,0.2139,0.2209,0,0,0,0.1784,0.1796,0.181,0.1833,0.1842,0.1898,0.1905,0.1946,0.1977,0.1979,0.2087,0.2088,0.212,0.2136,0.2207,0.2145,0.2153,0,0,0.1789,0.1797,0.1813,0.1826,0.1879,0.189,0.1955,0.1993,0.2004,0.2064,0.2066,0.2124,0.2138,0.2209,0.2215,0.2221,0,0,0,0.1808,0.1818,0.1838,0.1872,0.1915,0.1969,0.2002,0.2029,0.2088,0.2028,0.2138,0.2147,0.219,0.2147,0.2152,0.2094,0.2094,0.2094,0.2093,0.1789,0.1824,0.1858,0.191,0.1956,0.2028,0.208,0.2125,0.2125,0.2159,0.2187,0.2279,0.2233,0.2236,0.2197,0.2198,0.2198,0.2198,0.2198,0.1794,0.1807,0.1873,0.1917,0.1992,0.2054,0.216,0.2184,0.2281,0.2243,0.2284,0.22,0.2244,0.2201,0.2201,0.22,0.22,0.22,0.2199,0.1768,0.1777,0.1818,0.1888,0.1974,0.2067,0.2169,0.2253,0.2316,0.2363,0.2338,0.2336,0.2311,0.2392,0.2392,0.2392,0.2393,0.2393,0.2393,0.171,0.1753,0.1774,0.1856,0.1903,0.2012,0.2177,0.2256,0.2356,0.2384,0.2384,0.2346,0.2339,0.2324,0.24,0.2399,0.2398,0.2397,0.2397,0.1662,0.1673,0.1702,0.1739,0.1846,0.1897,0.2078,0.2229,0.2345,0.238,0.2406,0.2404,0.2394,0.2388,0.2374,0.2459,0.2459,0.2459,0.2459,0.1608,0.1622,0.1634,0.167,0.174,0.1841,0.1893,0.2029,0.2219,0.2285,0.2292,0.2206,0.2208,0.2182,0.2181,0.216,0.219,0.2189,0.2189,0.1572,0.1583,0.1568,0.1607,0.1677,0.1749,0.1737,0.1762,0.1958,0.2175,0.2212,0.2447,0.2336,0.2333,0.2303,0.2297,0.2269,0,0]},{"header":{"parameterUnit":"m.s-1","parameterCategory":2,"la1":30.2992,"la2":30.254,"lo1":-89.0895,"lo2":-89.0443,"dy":0.0025,"dx":0.0025,"nx":19,"ny":19,"refTime":"2026-04-07T03:00:00:Z","depth":"2","parameterNumber":3,"parameterNumberName":"V-component_of_CURRENTS"},"data":[0,0,0,-0.0187,-0.0187,-0.0234,-0.0235,-0.0326,-0.0326,0,0,0,0,0,0,0,0,0,0,0,-0.018,-0.018,-0.0187,-0.0187,-0.0234,-0.0235,-0.0325,-0.0326,0,0,0,0,0,0,0,0,0,0,0,-0.018,-0.018,-0.018,-0.0187,-0.0234,-0.0235,-0.0325,-0.0287,0,0,0,0,0,0,0,0,0,0,-0.0239,-0.023,-0.018,-0.018,-0.0187,-0.0234,-0.0235,-0.0285,-0.0289,-0.0307,0,-0.0309,0,-0.0308,-0.0331,-0.0332,0,0,0,-0.0206,-0.0226,-0.0225,-0.018,-0.0188,-0.0234,-0.0218,-0.0287,-0.0292,-0.0313,-0.031,-0.0313,-0.031,-0.0332,-0.0332,-0.0352,-0.0351,0,0,-0.0203,-0.0205,-0.0221,-0.0228,-0.0193,-0.0217,-0.0219,-0.029,-0.0301,-0.031,-0.0315,-0.0311,-0.0332,-0.0333,-0.0352,-0.0352,0,0,0,-0.0183,-0.0203,-0.0201,-0.0225,-0.0224,-0.0217,-0.0221,-0.0299,-0.0293,-0.0316,-0.0312,-0.0333,-0.0334,-0.0352,-0.0352,-0.0281,0,0,0,-0.0182,-0.019,-0.0199,-0.0203,-0.0223,-0.0259,-0.0228,-0.0289,-0.0296,-0.0312,-0.0333,-0.0334,-0.0353,-0.0352,-0.0284,-0.023,0,0,0,-0.0179,-0.019,-0.019,-0.0203,-0.0212,-0.0258,-0.0258,-0.0291,-0.0294,-0.0332,-0.0335,-0.0353,-0.0352,-0.0286,-0.0235,-0.0188,0,0,0,-0.0187,-0.016,-0.019,-0.0163,-0.0211,-0.0195,-0.0258,-0.0269,-0.0294,-0.0333,-0.0353,-0.0352,-0.0287,-0.0239,-0.0191,-0.0103,-0.008,0,0,-0.0146,-0.0156,-0.0135,-0.0161,-0.0131,-0.019,-0.017,-0.0237,-0.029,-0.0336,-0.0337,-0.0283,-0.0236,-0.0189,-0.0054,-0.0033,0,0,0,-0.0116,-0.01,-0.0098,-0.0093,-0.0101,-0.011,-0.0171,-0.0203,-0.0253,-0.0298,-0.0285,-0.0258,-0.023,-0.0185,-0.0168,-0.0348,-0.0348,-0.0348,-0.0348,-0.0052,-0.0053,-0.0018,-0.002,-0.0021,-0.006,-0.0074,-0.0129,-0.0198,-0.021,-0.0203,-0.0119,-0.007,-0.0056,-0.0219,-0.0218,-0.0218,-0.0218,-0.0218,0.0034,0.0064,0.0047,0.008,0.0058,0.0061,0.001,-0.0039,-0.0065,-0.0138,-0.0115,-0.0115,-0.0033,-0.0212,-0.0213,-0.0214,-0.0215,-0.0215,-0.0215,0.0087,0.0103,0.0111,0.0149,0.0165,0.0134,0.0176,0.0102,0.0016,0.0033,0.0065,0.0064,-0.0063,0.0034,0.0034,0.0035,0.0035,0.0035,0.0036,0.0139,0.0151,0.0194,0.0223,0.0251,0.0285,0.0266,0.0274,0.0238,0.0171,0.0171,-0.0034,-0.0042,-0.0048,0.0043,0.0041,0.004,0.004,0.0039,0.0214,0.021,0.0284,0.0321,0.0402,0.0499,0.0474,0.0515,0.0486,0.0496,0.0246,0.0238,0.0228,0.0214,0.0214,0.0368,0.0368,0.0368,0.0368,0.0261,0.0265,0.0366,0.0446,0.0549,0.0602,0.0747,0.0724,0.0598,0.0484,0.0478,0.0433,0.0418,0.0414,0.0395,0.0396,0.0597,0.0597,0.0597,0.0312,0.0337,0.0417,0.0491,0.0611,0.0735,0.0866,0.0848,0.0667,0.0601,0.0466,0.0393,0.0309,0.0292,0.0266,0.0244,0.0237,0,0]}],[{"header":{"parameterUnit":"m.s-1","parameterCategory":2,"la1":30.2992,"la2":30.254,"lo1":-89.0895,"lo2":-89.0443,"dy":0.0025,"dx":0.0025,"nx":19,"ny":19,"refTime":"2026-04-07T03:00:00:Z","depth":"4","parameterNumber":2,"parameterNumberName":"U-component_of_CURRENTS"},"data":[0,0,0,0.1222,0.1225,0.1354,0.1354,0.144,0.144,0,0,0,0,0,0,0,0,0,0,0,0.1175,0.1176,0.1222,0.1226,0.1354,0.1354,0.144,0.144,0,0,0,0,0,0,0,0,0,0,0,0.1175,0.1176,0.1177,0.1226,0.1354,0.1354,0.144,0.1361,0,0,0,0,0,0,0,0,0,0,0.1246,0.1223,0.1176,0.1177,0.1227,0.1353,0.1354,0.1358,0.1366,0.1361,0,0.1388,0,0.1418,0.1445,0.1445,0,0,0,0.1221,0.1217,0.1245,0.1178,0.1228,0.1353,0.1295,0.1363,0.1372,0.1371,0.139,0.1394,0.142,0.1445,0.1446,0.1542,0.1543,0,0,0.1214,0.1202,0.124,0.1251,0.127,0.1291,0.1299,0.1369,0.1383,0.139,0.1396,0.1421,0.1446,0.1446,0.1542,0.1542,0,0,0,0.1197,0.1197,0.1226,0.1247,0.1278,0.1294,0.1304,0.138,0.1389,0.1397,0.1422,0.1446,0.1447,0.1541,0.1542,0.1569,0,0,0,0.1192,0.1187,0.1223,0.1217,0.1277,0.1344,0.1313,0.1384,0.1393,0.1422,0.1446,0.1447,0.154,0.1542,0.1567,0.1575,0,0,0,0.1168,0.1185,0.1201,0.1216,0.1274,0.1344,0.1357,0.1387,0.1408,0.1445,0.1448,0.154,0.1541,0.1565,0.1572,0.1615,0,0,0,0.1148,0.1175,0.1201,0.1242,0.1273,0.1342,0.1357,0.1422,0.1457,0.1446,0.1541,0.1542,0.1565,0.1571,0.1613,0.1433,0,0,0,0.1165,0.1177,0.1199,0.1225,0.1281,0.1323,0.1394,0.1451,0.1474,0.1509,0.1512,0.1568,0.1572,0.1615,0.1515,0,0,0,0,0.1192,0.121,0.1231,0.1276,0.1325,0.1386,0.1447,0.1479,0.1548,0.1503,0.1588,0.159,0.1616,0.1506,0.1549,0.1548,0.1548,0.1548,0.1548,0.1187,0.1217,0.1256,0.1304,0.1352,0.144,0.1494,0.1552,0.1567,0.1612,0.1628,0.1699,0.1584,0.1647,0.1647,0.1647,0.1647,0.1648,0.1648,0.1197,0.1212,0.1269,0.1321,0.1385,0.1455,0.1549,0.159,0.1681,0.1672,0.1696,0.156,0.1651,0.165,0.165,0.1649,0.1649,0.1649,0.1649,0.1171,0.1182,0.1232,0.1305,0.1388,0.1476,0.1558,0.1643,0.1706,0.1746,0.1651,0.1728,0.1709,0.1774,0.1775,0.1775,0.1775,0.1775,0.1775,0.1114,0.1162,0.1206,0.1289,0.1342,0.1431,0.1579,0.1637,0.1724,0.1668,0.177,0.1742,0.1737,0.1717,0.1779,0.1778,0.1778,0.1778,0.1777,0.1069,0.1103,0.1152,0.1202,0.1305,0.1345,0.1503,0.1578,0.1636,0.1627,0.1626,0.1633,0.1609,0.1608,0.1582,0.1606,0.1604,0.1602,0,0.103,0.1051,0.1109,0.1156,0.1197,0.1288,0.1321,0.1414,0.1496,0.1445,0.1631,0.1627,0.1631,0.16,0.1596,0.1563,0,0,0,0.1002,0.1028,0.1045,0.1104,0.1137,0.1202,0.132,0.1319,0.1472,0.1484,0.155,0.1564,0.1698,0.179,0.1769,0.1764,0.1731,0,0]},{"header":{"parameterUnit":"m.s-1","parameterCategory":2,"la1":30.2992,"la2":30.254,"lo1":-89.0895,"lo2":-89.0443,"dy":0.0025,"dx":0.0025,"nx":19,"ny":19,"refTime":"2026-04-07T03:00:00:Z","depth":"4","parameterNumber":3,"parameterNumberName":"V-component_of_CURRENTS"},"data":[0,0,0,0.0081,0.008,0.0034,0.0034,0.0017,0.0017,0,0,0,0,0,0,0,0,0,0,0,0.0102,0.0102,0.0081,0.008,0.0034,0.0034,0.0017,0.0017,0,0,0,0,0,0,0,0,0,0,0,0.0102,0.0102,0.0102,0.008,0.0034,0.0034,0.0017,0.0041,0,0,0,0,0,0,0,0,0,0,0.008,0.0097,0.0102,0.0102,0.008,0.0034,0.0034,0.0042,0.004,0.0051,0,0.0047,0,0.0031,0.0017,0.0017,0,0,0,0.0078,0.0099,0.0083,0.0102,0.0079,0.0034,0.0054,0.004,0.0038,0.0048,0.0046,0.0045,0.0031,0.0017,0.0017,0.0044,0.0044,0,0,0.0081,0.0097,0.0085,0.0082,0.0072,0.0056,0.0053,0.0038,0.0041,0.0046,0.0044,0.0031,0.0017,0.0017,0.0044,0.0044,0,0,0,0.0089,0.0099,0.0082,0.0083,0.0071,0.0055,0.0051,0.0042,0.0036,0.0044,0.003,0.0017,0.0017,0.0044,0.0044,0.0103,0,0,0,0.0091,0.0103,0.0083,0.0093,0.0071,0.0051,0.0056,0.0037,0.0034,0.0031,0.0017,0.0017,0.0043,0.0044,0.0101,0.0133,0,0,0,0.0103,0.0105,0.01,0.0094,0.0073,0.005,0.0043,0.0035,0.0026,0.0017,0.0017,0.0043,0.0044,0.0099,0.0129,0.0141,0,0,0,0.012,0.0123,0.01,0.0109,0.0074,0.0077,0.0043,0.0038,0.0034,0.0017,0.0043,0.0044,0.0098,0.0127,0.0139,0.0142,0,0,0,0.0134,0.0126,0.0132,0.011,0.0129,0.0083,0.0108,0.0079,0.0048,0.005,0.005,0.0102,0.0129,0.0141,0.0183,0,0,0,0,0.0144,0.015,0.0152,0.0156,0.0149,0.0154,0.012,0.0109,0.0097,0.0048,0.0099,0.0115,0.012,0.0115,0.0047,0.0047,0.0047,0.0047,0.0047,0.0178,0.0179,0.0205,0.0208,0.0217,0.0203,0.0204,0.0182,0.0146,0.0147,0.0161,0.0209,0.0207,0.0154,0.0154,0.0155,0.0155,0.0155,0.0155,0.0214,0.0231,0.025,0.0273,0.0284,0.0304,0.0291,0.0262,0.0257,0.0218,0.0219,0.0176,0.0161,0.016,0.0159,0.0158,0.0158,0.0158,0.0157,0.0236,0.0248,0.0264,0.0312,0.0357,0.0361,0.04,0.0366,0.0314,0.032,0.0286,0.0245,0.0241,0.0308,0.0308,0.0308,0.0308,0.0308,0.0309,0.025,0.0271,0.0306,0.0354,0.0396,0.0443,0.0454,0.0446,0.039,0.0358,0.0329,0.026,0.0255,0.0249,0.0312,0.0311,0.0311,0.0311,0.031,0.0274,0.0281,0.0336,0.0376,0.0469,0.0507,0.0522,0.0492,0.0477,0.0434,0.0368,0.0364,0.034,0.0333,0.0328,0.0417,0.0417,0.0417,0,0.0288,0.0295,0.0367,0.0436,0.0511,0.0546,0.0554,0.0536,0.0463,0.0457,0.0454,0.0381,0.0377,0.0349,0.0343,0.0339,0,0,0,0.031,0.0328,0.038,0.0445,0.053,0.0549,0.0558,0.0539,0.0482,0.0461,0.0424,0.0423,0.0372,0.0321,0.0274,0.0268,0.0255,0,0]}]]